| time (UTC) | temp F | wind direction | speed MPH | gust MPH | rain 1hr in | rain 24hr in | rain mn in | humidity % | barometer mb |
| 20260505072503 | 53 | 353 | 2.0 | 4.0 | 0.12 | 0.20 | 0.20 | 87 | 1011.5 |
| 20260505072004 | 53 | 353 | 2.0 | 4.0 | 0.13 | 0.20 | 0.20 | 87 | 1011.5 |
| 20260505071503 | 53 | 356 | 1.0 | 3.0 | 0.13 | 0.20 | 0.20 | 87 | 1011.5 |
| 20260505071003 | 52 | 17 | 1.0 | 2.0 | 0.12 | 0.19 | 0.19 | 86 | 1011.4 |
| 20260505070503 | 52 | 16 | 1.0 | 3.0 | 0.13 | 0.19 | 0.19 | 85 | 1011.4 |
| 20260505070004 | 52 | 5 | 1.0 | 3.0 | 0.12 | 0.18 | 0.18 | 85 | 1011.7 |
| 20260505065504 | 52 | 344 | 1.0 | 3.0 | 0.12 | 0.18 | 0.18 | 85 | 1011.8 |
| 20260505065003 | 52 | 330 | 1.0 | 3.0 | 0.11 | 0.17 | 0.17 | 85 | 1011.5 |
| 20260505064503 | 52 | 336 | 1.0 | 3.0 | 0.08 | 0.14 | 0.14 | 84 | 1011.5 |
| 20260505064003 | 52 | 347 | 1.0 | 2.0 | 0.07 | 0.12 | 0.12 | 84 | 1011.8 |
| 20260505063525 | 52 | 6 | 1.0 | 3.0 | 0.06 | 0.11 | 0.11 | 84 | 1011.5 |
| 20260505063003 | 52 | 352 | 2.0 | 4.0 | 0.05 | 0.09 | 0.09 | 84 | 1011.7 |
| 20260505062503 | 52 | 345 | 2.0 | 4.0 | 0.05 | 0.08 | 0.08 | 83 | 1011.4 |
| 20260505062003 | 52 | 352 | 1.0 | 2.0 | 0.04 | 0.07 | 0.07 | 83 | 1011.5 |
| 20260505061503 | 52 | 4 | 1.0 | 4.0 | 0.04 | 0.07 | 0.07 | 83 | 1011.4 |
| 20260505061003 | 52 | 1 | 1.0 | 4.0 | 0.05 | 0.07 | 0.07 | 82 | 1011.3 |
| 20260505060524 | 52 | 7 | 1.0 | 3.0 | 0.04 | 0.06 | 0.06 | 82 | 1011.5 |
| 20260505060004 | 52 | 3 | 2.0 | 4.0 | 0.04 | 0.06 | 0.06 | 82 | 1011.4 |
| 20260505055525 | 52 | 348 | 2.0 | 4.0 | 0.05 | 0.06 | 0.06 | 82 | 1011.4 |
| 20260505055003 | 52 | 341 | 2.0 | 3.0 | 0.05 | 0.06 | 0.06 | 81 | 1011.1 |
| 20260505054504 | 52 | 353 | 2.0 | 3.0 | 0.05 | 0.06 | 0.06 | 81 | 1011.3 |
| 20260505054003 | 52 | 354 | 3.0 | 4.0 | 0.04 | 0.05 | 0.05 | 81 | 1011.1 |
| 20260505053503 | 52 | 349 | 3.0 | 6.0 | 0.04 | 0.05 | 0.05 | 80 | 1011.0 |
| 20260505053004 | 52 | 338 | 3.0 | 6.0 | 0.04 | 0.05 | 0.05 | 80 | 1010.9 |
| 20260505052524 | 52 | 344 | 4.0 | 5.0 | 0.02 | 0.04 | 0.04 | 80 | 1011.0 |
| 20260505052003 | 52 | 326 | 5.0 | 8.0 | 0.02 | 0.04 | 0.04 | 79 | 1011.0 |
| 20260505051524 | 53 | 311 | 5.0 | 11.0 | 0.02 | 0.04 | 0.04 | 79 | 1010.9 |
| 20260505051039 | 53 | 317 | 3.0 | 11.0 | 0.01 | 0.02 | 0.02 | 78 | 1010.9 |
| 20260505050524 | 53 | 313 | 2.0 | 4.0 | 0.02 | 0.02 | 0.02 | 77 | 1010.7 |
| 20260505041503 | 55 | 0 | 0.0 | 0.0 | 0.01 | 0.01 | 0.01 | 69 | 1010.7 |
| 20260505041024 | 55 | 0 | 0.0 | 0.0 | 0.01 | 0.01 | 0.01 | 68 | 1010.7 |
| 20260505040503 | 55 | 0 | 0.0 | 0.0 | 0.00 | 0.00 | 0.00 | 65 | 1010.8 |
| 20260505040004 | 55 | 0 | 0.0 | 0.0 | 0.00 | 0.00 | 0.00 | 65 | 1010.8 |
| 20260505035503 | 56 | 0 | 0.0 | 0.0 | 0.00 | 0.00 | 0.00 | 64 | 1010.7 |
| 20260505035004 | 56 | 0 | 0.0 | 0.0 | 0.00 | 0.00 | 0.00 | 64 | 1010.8 |
| 20260505034503 | 56 | 0 | 0.0 | 0.0 | 0.00 | 0.00 | 0.00 | 63 | 1010.6 |
| 20260505034003 | 56 | 0 | 0.0 | 0.0 | 0.00 | 0.00 | 0.00 | 63 | 1010.7 |
| 20260505033503 | 56 | 0 | 0.0 | 0.0 | 0.00 | 0.00 | 0.00 | 62 | 1010.6 |
| 20260505033003 | 56 | 0 | 0.0 | 0.0 | 0.00 | 0.00 | 0.00 | 62 | 1010.7 |
| 20260505032503 | 57 | 0 | 0.0 | 0.0 | 0.00 | 0.00 | 0.00 | 62 | 1010.7 |
| 20260505032003 | 57 | 0 | 0.0 | 0.0 | 0.00 | 0.00 | 0.00 | 62 | 1010.7 |
| 20260505031503 | 57 | 0 | 0.0 | 0.0 | 0.00 | 0.00 | 0.00 | 62 | 1010.9 |
| 20260505031003 | 57 | 0 | 0.0 | 0.0 | 0.00 | 0.00 | 0.00 | 62 | 1010.8 |
| 20260505030503 | 57 | 0 | 0.0 | 0.0 | 0.00 | 0.00 | 0.00 | 62 | 1010.9 |
| 20260505030004 | 57 | 22 | 0.0 | 1.0 | 0.00 | 0.00 | 0.00 | 62 | 1010.7 |
| 20260505025503 | 57 | 22 | 1.0 | 3.0 | 0.00 | 0.00 | 0.00 | 62 | 1010.8 |
| 20260505025004 | 57 | 22 | 1.0 | 3.0 | 0.00 | 0.00 | 0.00 | 62 | 1010.9 |
| 20260505024503 | 57 | 15 | 0.0 | 1.0 | 0.00 | 0.00 | 0.00 | 61 | 1010.9 |
| 20260505024024 | 57 | 360 | 0.0 | 1.0 | 0.00 | 0.00 | 0.00 | 61 | 1011.0 |
| 20260505023524 | 57 | 0 | 0.0 | 0.0 | 0.00 | 0.00 | 0.00 | 61 | 1011.0 |
| 20260505023003 | 57 | 0 | 0.0 | 0.0 | 0.00 | 0.00 | 0.00 | 61 | 1011.1 |
| 20260505022503 | 57 | 323 | 0.0 | 4.0 | 0.00 | 0.00 | 0.00 | 61 | 1011.3 |
| 20260505022003 | 57 | 318 | 1.0 | 4.0 | 0.00 | 0.00 | 0.00 | 61 | 1011.3 |
| 20260505021539 | 58 | 315 | 1.0 | 4.0 | 0.00 | 0.00 | 0.00 | 61 | 1011.4 |
| 20260505021003 | 58 | 0 | 0.0 | 0.0 | 0.00 | 0.00 | 0.00 | 61 | 1011.5 |
| 20260505020503 | 58 | 0 | 0.0 | 0.0 | 0.00 | 0.00 | 0.00 | 61 | 1011.7 |
| 20260505020003 | 58 | 0 | 0.0 | 0.0 | 0.00 | 0.00 | 0.00 | 61 | 1011.6 |
| 20260505015503 | 58 | 315 | 0.0 | 1.0 | 0.00 | 0.00 | 0.00 | 61 | 1011.6 |
| 20260505015003 | 58 | 315 | 0.0 | 2.0 | 0.00 | 0.00 | 0.00 | 61 | 1011.7 |
| 20260505014524 | 58 | 282 | 1.0 | 4.0 | 0.00 | 0.00 | 0.00 | 61 | 1011.5 |
| 20260505014003 | 58 | 272 | 3.0 | 4.0 | 0.00 | 0.00 | 0.00 | 61 | 1011.8 |
| 20260505013503 | 58 | 278 | 4.0 | 9.0 | 0.00 | 0.00 | 0.00 | 61 | 1011.8 |
| 20260505013003 | 58 | 280 | 5.0 | 9.0 | 0.00 | 0.00 | 0.00 | 62 | 1011.8 |
| 20260505012503 | 57 | 277 | 5.0 | 9.0 | 0.00 | 0.00 | 0.00 | 62 | 1012.0 |
| 20260505012003 | 57 | 278 | 3.0 | 5.0 | 0.00 | 0.00 | 0.00 | 62 | 1012.0 |
| 20260505011503 | 58 | 277 | 1.0 | 3.0 | 0.00 | 0.00 | 0.00 | 62 | 1012.1 |
| 20260505011003 | 58 | 280 | 1.0 | 2.0 | 0.00 | 0.00 | 0.00 | 61 | 1012.1 |
| 20260505010503 | 58 | 282 | 1.0 | 2.0 | 0.00 | 0.00 | 0.00 | 61 | 1012.2 |
| 20260505010004 | 58 | 283 | 0.0 | 2.0 | 0.00 | 0.00 | 0.00 | 61 | 1012.2 |
| 20260505005503 | 58 | 270 | 1.0 | 4.0 | 0.00 | 0.00 | 0.00 | 61 | 1012.2 |
| 20260505005004 | 58 | 278 | 1.0 | 4.0 | 0.00 | 0.00 | 0.00 | 61 | 1012.5 |
| 20260505004503 | 58 | 277 | 1.0 | 3.0 | 0.00 | 0.00 | 0.00 | 61 | 1012.5 |
| 20260505004003 | 58 | 259 | 2.0 | 4.0 | 0.00 | 0.00 | 0.00 | 61 | 1012.8 |
| 20260505003503 | 59 | 255 | 2.0 | 4.0 | 0.00 | 0.00 | 0.00 | 62 | 1012.9 |
| 20260505003003 | 59 | 264 | 1.0 | 4.0 | 0.00 | 0.00 | 0.00 | 62 | 1012.9 |
| 20260505002524 | 59 | 261 | 1.0 | 4.0 | 0.00 | 0.00 | 0.00 | 62 | 1013.1 |
| 20260505002003 | 59 | 258 | 1.0 | 3.0 | 0.00 | 0.00 | 0.00 | 62 | 1013.2 |
| 20260505001503 | 59 | 0 | 0.0 | 0.0 | 0.00 | 0.00 | 0.00 | 61 | 1013.2 |
| 20260505001003 | 59 | 0 | 0.0 | 0.0 | 0.00 | 0.00 | 0.00 | 61 | 1013.3 |
| 20260505000524 | 59 | 0 | 0.0 | 0.0 | 0.00 | 0.00 | 0.00 | 61 | 1013.3 |
| 20260505000024 | 59 | 0 | 0.0 | 0.0 | 0.00 | 0.00 | 0.00 | 61 | 1013.5 |
| 20260504235524 | 59 | 0 | 0.0 | 0.0 | 0.00 | 0.00 | 0.00 | 61 | 1013.4 |
| 20260504235003 | 59 | 0 | 0.0 | 0.0 | 0.00 | 0.00 | 0.00 | 61 | 1013.6 |
| 20260504234503 | 59 | 0 | 0.0 | 0.0 | 0.00 | 0.00 | 0.00 | 61 | 1013.6 |
| 20260504234003 | 59 | 0 | 0.0 | 0.0 | 0.00 | 0.00 | 0.00 | 61 | 1013.7 |
| 20260504233503 | 59 | 0 | 0.0 | 0.0 | 0.00 | 0.00 | 0.00 | 61 | 1013.6 |
| 20260504233003 | 59 | 270 | 0.0 | 1.0 | 0.00 | 0.00 | 0.00 | 61 | 1013.7 |
| 20260504232503 | 59 | 270 | 0.0 | 1.0 | 0.00 | 0.00 | 0.00 | 61 | 1013.8 |
| 20260504232003 | 60 | 315 | 0.0 | 2.0 | 0.00 | 0.00 | 0.00 | 61 | 1013.8 |
| 20260504231504 | 60 | 289 | 1.0 | 2.0 | 0.00 | 0.00 | 0.00 | 61 | 1013.8 |
| 20260504231003 | 60 | 290 | 0.0 | 2.0 | 0.00 | 0.00 | 0.00 | 61 | 1014.0 |
| 20260504230503 | 60 | 289 | 1.0 | 2.0 | 0.00 | 0.00 | 0.00 | 61 | 1013.9 |
| 20260504230003 | 60 | 275 | 1.0 | 3.0 | 0.00 | 0.00 | 0.00 | 61 | 1014.0 |
| 20260504225524 | 60 | 275 | 1.0 | 3.0 | 0.00 | 0.00 | 0.00 | 60 | 1014.1 |
| 20260504225003 | 60 | 292 | 1.0 | 3.0 | 0.00 | 0.00 | 0.00 | 60 | 1014.1 |
| 20260504224503 | 60 | 297 | 2.0 | 4.0 | 0.00 | 0.00 | 0.00 | 60 | 1014.2 |
| 20260504224003 | 60 | 288 | 2.0 | 4.0 | 0.00 | 0.00 | 0.00 | 60 | 1014.1 |
| 20260504223503 | 60 | 273 | 2.0 | 4.0 | 0.00 | 0.00 | 0.00 | 60 | 1014.1 |
| 20260504223003 | 60 | 281 | 1.0 | 4.0 | 0.00 | 0.00 | 0.00 | 60 | 1014.2 |
| 20260504222503 | 60 | 278 | 1.0 | 3.0 | 0.00 | 0.00 | 0.00 | 60 | 1014.2 |
| 20260504222003 | 60 | 272 | 1.0 | 3.0 | 0.00 | 0.00 | 0.00 | 60 | 1014.3 |
| 20260504221503 | 60 | 276 | 2.0 | 3.0 | 0.00 | 0.00 | 0.00 | 60 | 1014.3 |
| 20260504221003 | 60 | 273 | 2.0 | 3.0 | 0.00 | 0.00 | 0.00 | 60 | 1014.3 |
| 20260504220503 | 60 | 267 | 2.0 | 2.0 | 0.00 | 0.00 | 0.00 | 60 | 1014.3 |
| 20260504220003 | 60 | 265 | 2.0 | 5.0 | 0.00 | 0.00 | 0.00 | 60 | 1014.5 |
| 20260504215503 | 60 | 271 | 3.0 | 5.0 | 0.00 | 0.00 | 0.00 | 60 | 1014.5 |
| 20260504215003 | 60 | 274 | 3.0 | 5.0 | 0.00 | 0.00 | 0.00 | 60 | 1014.4 |
| 20260504214503 | 60 | 269 | 1.0 | 4.0 | 0.00 | 0.00 | 0.00 | 60 | 1014.5 |
| 20260504214003 | 60 | 260 | 1.0 | 2.0 | 0.00 | 0.00 | 0.00 | 59 | 1014.5 |
| 20260504213503 | 60 | 269 | 1.0 | 3.0 | 0.00 | 0.00 | 0.00 | 59 | 1014.6 |
| 20260504213003 | 60 | 274 | 3.0 | 5.0 | 0.00 | 0.00 | 0.00 | 59 | 1014.5 |
| 20260504212524 | 60 | 269 | 4.0 | 5.0 | 0.00 | 0.00 | 0.00 | 59 | 1014.6 |
| 20260504212024 | 61 | 266 | 4.0 | 6.0 | 0.00 | 0.00 | 0.00 | 59 | 1014.7 |
| 20260504211503 | 61 | 264 | 5.0 | 7.0 | 0.00 | 0.00 | 0.00 | 58 | 1014.9 |
| 20260504211024 | 61 | 266 | 6.0 | 8.0 | 0.00 | 0.00 | 0.00 | 58 | 1014.9 |
| 20260504210503 | 61 | 274 | 6.0 | 8.0 | 0.00 | 0.00 | 0.00 | 58 | 1014.8 |
| 20260504210024 | 60 | 270 | 5.0 | 8.0 | 0.00 | 0.00 | 0.00 | 58 | 1014.8 |
| 20260504205503 | 60 | 269 | 5.0 | 7.0 | 0.00 | 0.00 | 0.00 | 58 | 1014.9 |
| 20260504205003 | 60 | 270 | 4.0 | 7.0 | 0.00 | 0.00 | 0.00 | 58 | 1014.9 |
| 20260504204503 | 60 | 260 | 2.0 | 5.0 | 0.00 | 0.00 | 0.00 | 57 | 1015.0 |
| 20260504204024 | 60 | 253 | 1.0 | 3.0 | 0.00 | 0.00 | 0.00 | 56 | 1015.0 |
| 20260504203503 | 60 | 253 | 0.0 | 3.0 | 0.00 | 0.00 | 0.00 | 56 | 1015.1 |
| 20260504203003 | 60 | 217 | 0.0 | 1.0 | 0.00 | 0.00 | 0.00 | 56 | 1015.0 |
| 20260504202503 | 60 | 202 | 0.0 | 1.0 | 0.00 | 0.00 | 0.00 | 56 | 1015.0 |
| 20260504202003 | 60 | 0 | 0.0 | 0.0 | 0.00 | 0.00 | 0.00 | 55 | 1014.8 |
| 20260504201503 | 60 | 0 | 0.0 | 0.0 | 0.00 | 0.00 | 0.00 | 54 | 1014.8 |
| 20260504201003 | 60 | 0 | 0.0 | 0.0 | 0.00 | 0.00 | 0.00 | 54 | 1014.8 |
| 20260504200503 | 61 | 0 | 0.0 | 0.0 | 0.00 | 0.00 | 0.00 | 53 | 1014.9 |
| 20260504200024 | 61 | 0 | 0.0 | 0.0 | 0.00 | 0.00 | 0.00 | 53 | 1014.9 |
| 20260504195524 | 62 | 0 | 0.0 | 0.0 | 0.00 | 0.00 | 0.00 | 51 | 1014.7 |
| 20260504195003 | 62 | 0 | 0.0 | 0.0 | 0.00 | 0.00 | 0.00 | 51 | 1014.8 |
| 20260504194503 | 63 | 0 | 0.0 | 0.0 | 0.00 | 0.00 | 0.00 | 51 | 1014.8 |
| 20260504194003 | 63 | 0 | 0.0 | 0.0 | 0.00 | 0.00 | 0.00 | 51 | 1014.6 |
| 20260504193503 | 63 | 0 | 0.0 | 0.0 | 0.00 | 0.00 | 0.00 | 51 | 1014.8 |
| 20260504193003 | 63 | 0 | 0.0 | 0.0 | 0.00 | 0.00 | 0.00 | 51 | 1014.8 |
| 20260504192503 | 63 | 0 | 0.0 | 0.0 | 0.00 | 0.00 | 0.00 | 51 | 1014.5 |
| 20260504192003 | 63 | 0 | 0.0 | 0.0 | 0.00 | 0.00 | 0.00 | 51 | 1014.6 |
| 20260504191503 | 63 | 0 | 0.0 | 0.0 | 0.00 | 0.00 | 0.00 | 51 | 1014.5 |
| 20260504191024 | 63 | 0 | 0.0 | 0.0 | 0.00 | 0.00 | 0.00 | 51 | 1014.4 |
| 20260504190503 | 63 | 0 | 0.0 | 0.0 | 0.00 | 0.00 | 0.00 | 50 | 1014.6 |
| 20260504190003 | 63 | 0 | 0.0 | 0.0 | 0.00 | 0.00 | 0.00 | 50 | 1014.4 |
| 20260504185503 | 63 | 0 | 0.0 | 0.0 | 0.00 | 0.00 | 0.00 | 50 | 1014.5 |
| 20260504185003 | 63 | 0 | 0.0 | 0.0 | 0.00 | 0.00 | 0.00 | 50 | 1014.5 |
| 20260504184503 | 64 | 0 | 0.0 | 0.0 | 0.00 | 0.00 | 0.00 | 45 | 1014.4 |
| 20260504184003 | 64 | 0 | 0.0 | 0.0 | 0.00 | 0.00 | 0.00 | 45 | 1014.3 |
| 20260504183503 | 64 | 0 | 0.0 | 0.0 | 0.00 | 0.00 | 0.00 | 45 | 1014.3 |
| 20260504183003 | 64 | 0 | 0.0 | 0.0 | 0.00 | 0.00 | 0.00 | 45 | 1014.4 |
| 20260504182503 | 64 | 0 | 0.0 | 0.0 | 0.00 | 0.00 | 0.00 | 44 | 1014.4 |
| 20260504182003 | 64 | 0 | 0.0 | 0.0 | 0.00 | 0.00 | 0.00 | 45 | 1014.3 |
| 20260504181503 | 65 | 270 | 0.0 | 1.0 | 0.00 | 0.00 | 0.00 | 44 | 1014.2 |
| 20260504181003 | 65 | 270 | 0.0 | 1.0 | 0.00 | 0.00 | 0.00 | 44 | 1014.3 |
| 20260504180503 | 65 | 0 | 0.0 | 0.0 | 0.00 | 0.00 | 0.00 | 43 | 1014.2 |
| 20260504180003 | 65 | 0 | 0.0 | 0.0 | 0.00 | 0.00 | 0.00 | 43 | 1014.3 |
| 20260504175503 | 65 | 270 | 0.0 | 1.0 | 0.00 | 0.00 | 0.00 | 43 | 1014.2 |
| 20260504175003 | 65 | 272 | 1.0 | 4.0 | 0.00 | 0.00 | 0.00 | 43 | 1014.3 |
| 20260504174503 | 65 | 265 | 1.0 | 4.0 | 0.00 | 0.00 | 0.00 | 42 | 1014.2 |
| 20260504174003 | 66 | 257 | 1.0 | 3.0 | 0.00 | 0.00 | 0.00 | 42 | 1014.3 |
| 20260504173503 | 66 | 264 | 2.0 | 3.0 | 0.00 | 0.00 | 0.00 | 41 | 1014.2 |
| 20260504173003 | 66 | 276 | 3.0 | 5.0 | 0.00 | 0.00 | 0.00 | 41 | 1014.3 |
| 20260504172503 | 66 | 270 | 3.0 | 5.0 | 0.00 | 0.00 | 0.00 | 41 | 1014.3 |
| 20260504172003 | 66 | 258 | 3.0 | 6.0 | 0.00 | 0.00 | 0.00 | 40 | 1014.4 |
| 20260504171503 | 66 | 261 | 4.0 | 6.0 | 0.00 | 0.00 | 0.00 | 40 | 1014.3 |
| 20260504171003 | 67 | 264 | 3.0 | 6.0 | 0.00 | 0.00 | 0.00 | 40 | 1014.3 |
| 20260504170503 | 67 | 256 | 3.0 | 5.0 | 0.00 | 0.00 | 0.00 | 40 | 1014.4 |
| 20260504151024 | 70 | 282 | 5.0 | 8.0 | 0.00 | 0.00 | 0.00 | 39 | 1014.9 |
| 20260504150503 | 69 | 305 | 3.0 | 4.0 | 0.00 | 0.00 | 0.00 | 39 | 1015.1 |
| 20260504141003 | 70 | 318 | 5.0 | 9.0 | 0.00 | 0.00 | 0.00 | 39 | 1015.3 |
| 20260504140503 | 71 | 296 | 5.0 | 6.0 | 0.00 | 0.00 | 0.00 | 38 | 1015.5 |
| 20260504130503 | 69 | 300 | 3.0 | 5.0 | 0.00 | 0.00 | 0.00 | 40 | 1015.9 |
| 20260504110504 | 66 | 32 | 5.0 | 8.0 | 0.00 | 0.00 | 0.00 | 41 | 1016.7 |
| 20260504100504 | 66 | 271 | 4.0 | 7.0 | 0.00 | 0.00 | 0.00 | 38 | 1017.0 |
| 20260504081504 | 64 | 0 | 0.0 | 0.0 | 0.00 | 0.00 | 0.00 | 43 | 1016.6 |
| 20260504081025 | 64 | 0 | 0.0 | 0.0 | 0.00 | 0.00 | 0.00 | 44 | 1016.6 |
| 20260504080504 | 64 | 0 | 0.0 | 0.0 | 0.00 | 0.00 | 0.00 | 45 | 1016.8 |